Tracking 31027 objects as of 19-Jul-2025
HD Live streaming from Space Station
objects crossing your sky now

FENGYUN 1C DEB

Track FENGYUN 1C DEB now!
10-day predictions


NORAD ID: 31879
Int'l Code: 1999-025CKE
Perigee: 607.0 km
Apogee: 908.4 km
Inclination: 99.7 °
Period: 99.8 minutes
Semi major axis: 7128 km
RCS: 0.0119 m2 (small)
Launch date: May 10, 1999
Source: People's Republic of China (PRC)
Launch site: Taiyaun Space Center, China (TSC)

Note: This is SATELLITE DEBRIS
Your satellite tracking list
ATLAS 2A CENTAUR R/B
Track 1 satellite(s)




NASA's NSSDC Master Catalog

Two Line Element Set (TLE):
1 31879U 99025CKE 25199.86191153  .00000964  00000-0  23780-3 0  9995
2 31879  99.7293  57.8535 0211430 102.2740 260.2206 14.42401585610929
Source of the keplerian elements: AFSPC